SCP
0 0 0 0 0 0 0 0 0 0 0 0 0 0 0 0 0 0 0 0 0 0 0 0 0 0 0 0 0 0 0 0 0 0 0 0 0 0 0 0 0 0 0
0 0 0 1 1 1 0 0 0 0 0 0 0 0 0 0 0 0 0 0 0 0 0 0 0 0 0 0 0 0 0 0 0 0 0 0 0 0 0 0 0 0 0
0 0 0 1 1 1 1 1 0 0 0 0 0 0 0 0 0 0 0 0 0 0 0 0 0 0 0 0 0 0 0 0 0 0 0 0 0 0 0 0 0 0 0
1 1 1 1 1 1 1 1 0 0 0 0 0 0 0 0 0 0 0 0 0 0 0 0 0 0 0 0 0 0 0 0 0 0 0 0 0 0 0 0 0 0 0
1 1 1 1 1 1 1 1 0 0 0 0 0 0 0 0 0 0 0 0 0 0 0 0 0 0 0 0 0 0 0 0 0 0 0 0 0 0 0 0 0 0 0
1 1 1 1 1 1 1 1 0 0 0 0 0 0 0 0 0 0 0 0 0 0 0 0 0 0 0 0 0 0 0 0 0 0 0 0 0 0 0 0 0 0 0
1 1 1 1 1 1 1 1 0 0 0 0 0 0 0 0 0 0 0 0 0 0 0 0 0 0 0 0 0 0 0 0 0 0 0 0 0 0 0 0 0 0 0
1 1 1 1 1 1 1 1 1 0 0 0 0 0 0 0 0 0 0 0 0 0 0 0 0 0 0 0 0 0 0 0 0 0 0 0 0 0 0 0 0 0 0
1 1 1 1 1 1 1 1 1 0 0 0 0 0 0 0 0 0 0 0 0 0 0 0 0 0 0 0 0 0 0 0 0 0 0 0 0 0 0 0 0 0 0
1 1 1 1 1 1 1 1 1 0 0 0 0 0 0 0 0 0 0 0 0 0 0 0 0 0 0 0 0 0 0 0 0 0 0 0 0 0 0 0 0 0 0
1 1 1 1 1 1 1 0 0 0 0 0 0 0 0 0 0 0 0 0 0 0 0 0 0 0 0 0 0 0 0 0 0 0 0 0 0 0 0 0 0 0 0
1 1 1 1 1 1 1 0 0 0 0 0 0 0 0 0 0 0 0 0 0 0 0 0 0 0 0 0 0 0 0 0 0 0 0 0 0 0 0 0 0 0 0
1 1 1 1 1 1 1 0 0 0 0 0 0 0 0 0 0 0 0 0 0 0 0 0 0 0 0 0 0 0 0 0 0 0 0 0 0 0 0 0 0 0 0
1 1 1 1 1 1 1 0 0 0 0 0 0 0 0 0 0 0 0 0 0 0 0 0 0 0 0 0 0 0 0 0 0 0 0 0 0 0 0 0 0 0 0
1 1 1 1 1 1 1 0 0 0 0 0 0 0 0 0 0 0 0 0 0 0 0 0 0 0 0 0 0 0 0 0 0 0 0 0 0 0 0 0 0 0 0
1 1 1 1 1 1 1 0 0 0 0 0 0 0 0 0 0 0 0 0 0 0 0 0 0 0 0 0 0 0 0 0 0 0 0 0 0 0 0 0 0 0 0
1 1 1 1 1 1 0 0 0 0 0 0 0 0 0 0 0 0 0 0 0 0 0 0 0 0 0 0 0 0 0 0 0 0 0 0 0 0 0 0 0 0 0
1 1 0 0 0 0 0 0 0 0 0 0 0 0 0 0 0 0 0 0 0 0 0 0 0 0 0 0 0 0 0 0 0 0 0 0 0 0 0 0 0 0 0
1 0 0 0 0 0 0 0 0 0 0 0 0 0 0 0 0 0 0 0 0 0 0 0 0 0 0 0 0 0 0 0 0 0 0 0 0 0 0 0 0 0 0
1 0 0 0 0 0 0 0 0 0 0 0 0 0 0 0 0 0 0 0 0 0 0 0 0 0 0 0 0 0 0 0 0 0 0 0 0 0 0 0 0 0 0
0 0 0 0 0 0 0 0 0 0 0 0 0 0 0 0 0 0 0 0 0 0 0 0 0 0 0 0 0 0 0 0 0 0 0 0 0 0 0 0 0 0 0
0 0 0 0 0 0 0 0 0 0 0 0 0 0 0 0 0 0 0 0 0 0 0 0 0 0 0 0 0 0 0 0 0 0 0 0 0 0 0 0 0 0 0
0 0 0 0 0 0 0 0 0 0 0 0 0 0 0 0 0 0 0 0 0 0 0 0 0 0 0 0 0 0 0 0 0 0 0 0 0 0 0 0 0 0 0
0 0 0 0 0 0 0 0 0 0 0 0 0 0 0 0 0 0 0 0 0 0 0 0 0 0 0 0 0 0 0 0 0 0 0 0 0 0 0 0 0 0 0
0 0 0 0 0 0 0 0 0 0 0 0 0 0 0 0 0 0 0 0 0 0 0 0 0 0 0 0 0 0 0 0 0 0 0 0 0 0 0 0 0 0 0
0 0 0 0 0 0 0 0 0 0 0 0 0 0 0 0 0 0 0 0 0 0 0 0 0 0 0 0 0 0 0 0 0 0 0 0 0 0 0 0 0 0 0
Wind_Speed
5 7 12 12 13 13 13 13 13 13 13 14 14 14 14 14 15 14 14 14 14 14 15 16 17 17 17 17 17 18 18 18 18 17 16 16 17 18 18 17 15 11 18
8 9 12 12 13 13 13 13 13 13 12 13 14 14 13 13 13 14 14 13 14 14 15 16 16 16 16 16 17 17 17 17 17 16 14 13 14 17 17 17 16 12 18
10 9 11 11 13 13 13 13 13 13 12 12 13 13 13 13 13 13 13 13 14 14 15 15 16 16 15 15 16 16 16 16 15 14 11 7 10 16 17 16 16 17 17
10 9 10 11 12 13 13 13 13 13 12 12 12 13 13 13 12 13 13 13 14 14 14 15 15 14 14 14 14 15 15 15 14 12 7 6 7 15 16 16 16 16 17
8 7 9 11 12 13 13 13 12 12 12 12 12 12 12 13 13 12 13 13 14 14 14 14 14 13 13 13 14 15 15 15 13 10 6 6 6 14 16 16 16 16 16
7 6 8 10 12 12 12 12 12 12 12 12 11 11 12 12 13 13 12 13 13 13 13 13 13 12 12 12 13 15 15 14 10 6 6 5 5 13 15 15 15 15 16
7 6 8 9 11 11 11 11 12 12 12 12 11 11 12 12 12 13 12 12 13 13 13 13 12 12 12 13 14 15 14 12 7 6 5 5 7 14 15 15 15 15 15
8 7 7 8 9 10 10 10 11 11 12 11 11 11 11 11 12 12 12 12 12 12 12 12 12 11 12 13 14 14 12 9 8 7 5 5 9 13 14 14 14 14 14
7 6 6 6 6 7 8 8 9 10 10 10 10 10 10 10 10 11 11 11 12 12 12 11 11 11 11 12 13 13 12 10 5 4 5 4 9 13 13 13 13 13 13
6 5 5 5 5 4 5 7 7 8 9 9 9 9 8 8 9 9 9 10 11 11 11 11 11 11 10 11 11 12 11 8 5 4 3 5 10 12 13 13 13 13 13
5 4 5 4 4 4 4 6 6 7 8 8 8 9 7 5 5 5 7 9 10 10 10 10 10 10 9 9 10 10 7 4 4 3 2 8 11 12 12 12 12 12 12
6 4 4 4 4 4 4 4 3 3 4 4 4 5 4 4 3 5 7 8 9 8 8 8 8 8 6 4 5 6 3 4 3 2 3 8 11 11 12 11 11 11 11
6 5 4 4 4 3 3 3 2 2 2 3 4 4 4 3 3 3 3 4 4 5 4 5 5 3 3 3 3 3 3 3 2 2 3 7 10 11 11 10 10 10 10
5 4 4 4 4 3 3 3 3 2 2 3 3 4 4 3 3 3 2 2 2 2 3 3 2 3 3 3 4 4 4 3 2 2 3 6 8 9 10 10 10 9 9
4 4 4 5 4 3 3 2 3 2 2 3 3 4 4 3 4 3 2 2 2 2 3 3 3 3 3 4 4 4 4 4 3 3 2 5 7 8 9 9 9 9 9
1 2 3 4 5 4 3 2 3 2 2 3 3 4 4 4 4 3 3 3 2 2 3 3 4 4 3 3 4 4 4 4 4 4 3 4 6 7 8 8 8 8 8
1 2 2 4 4 4 4 3 3 2 2 3 3 4 4 4 4 4 4 3 3 3 3 3 4 3 4 4 4 4 4 3 3 3 3 3 3 5 7 7 7 7 7
1 1 1 2 3 3 4 3 3 3 3 3 2 3 4 4 4 4 4 3 3 3 3 4 4 4 3 4 3 3 3 3 3 3 3 3 2 2 4 6 6 6 6
1 1 1 1 2 2 3 3 3 3 3 2 2 2 3 4 5 4 3 3 4 4 3 4 3 4 4 4 4 3 3 3 3 3 3 3 3 2 2 4 5 5 5
1 1 1 1 1 1 2 2 3 3 2 2 2 3 4 4 5 4 4 4 4 4 3 4 5 4 4 4 5 4 3 3 3 3 2 2 2 3 2 3 2 3 4
3 2 1 1 0 1 1 2 3 3 3 3 2 3 4 4 5 4 4 4 4 4 4 5 5 5 3 4 4 4 3 4 3 2 2 2 2 2 2 3 2 2 2
2 2 1 0 0 0 1 2 3 4 3 3 3 3 4 4 4 4 5 4 4 4 5 5 5 4 3 3 4 4 2 1 2 2 2 2 2 2 2 2 2 2 2
3 2 2 1 1 1 0 0 1 2 2 2 2 3 3 4 4 4 5 5 5 4 5 5 5 5 4 2 2 4 4 3 1 1 1 1 1 1 1 1 2 2 2
3 3 2 2 1 1 1 1 2 3 3 3 4 3 3 4 4 4 5 5 5 4 5 5 4 3 5 4 2 1 2 4 4 2 0 1 1 1 1 1 1 2 2
4 4 2 2 2 1 0 1 2 2 2 2 3 4 3 3 3 4 5 4 5 4 5 5 4 3 3 4 3 2 2 2 2 3 2 1 0 0 0 1 1 1 1
5 4 4 3 3 2 1 1 2 3 3 3 4 5 4 3 3 3 4 4 4 4 5 5 5 5 3 3 2 2 3 3 3 3 3 2 1 1 0 0 1 1 1
Wind_Direction
162 166 151 144 139 134 129 125 120 117 113 112 108 107 107 107 107 107 106 106 106 105 102 98 96 93 91 91 90 88 86 84 81 79 75 76 80 81 80 77 76 73 79
152 158 149 145 140 136 132 126 122 118 116 115 113 112 111 111 111 111 110 110 109 106 103 100 97 95 93 93 92 91 88 86 83 78 72 73 78 81 81 79 78 80 79
145 152 146 142 140 137 134 129 125 122 118 117 117 116 115 114 114 114 114 112 111 108 104 101 99 97 94 93 93 92 89 86 83 76 71 69 79 84 83 81 80 80 80
146 147 147 142 140 139 136 133 130 127 123 120 120 120 118 116 117 117 115 112 112 110 106 103 101 98 95 94 94 93 92 86 82 75 66 62 75 86 86 84 82 81 80
137 142 145 142 141 139 138 135 133 132 129 126 123 123 121 120 117 117 116 112 111 111 109 106 103 99 95 94 95 95 94 88 81 74 65 60 70 86 87 85 84 83 81
124 131 142 139 140 138 137 138 138 136 132 129 128 126 122 122 119 115 114 113 112 112 111 108 104 98 93 94 97 98 95 90 80 72 65 63 73 87 89 87 85 85 83
125 126 139 132 134 136 137 140 141 139 134 131 131 129 125 122 120 118 116 117 117 115 114 111 107 101 96 94 97 99 95 90 84 76 70 71 82 91 91 90 88 86 84
127 128 131 125 128 132 134 137 140 138 135 133 133 130 127 125 122 121 121 121 121 120 118 115 111 105 99 97 98 96 93 93 90 84 76 77 91 93 94 92 90 88 85
119 118 120 125 125 126 127 129 132 135 133 131 132 128 123 122 124 126 127 125 125 124 121 118 114 107 101 99 98 94 91 87 84 85 89 83 93 97 97 95 93 92 89
110 114 116 115 114 119 128 123 121 125 128 126 124 120 118 121 123 126 128 126 125 125 124 120 115 108 101 98 97 94 90 85 80 78 78 95 97 100 99 97 96 94 92
113 114 119 116 110 110 122 123 119 119 119 120 121 119 116 116 119 121 126 128 128 128 127 123 117 108 99 95 95 92 88 87 86 80 80 100 102 103 101 99 99 98 95
139 135 131 128 126 124 128 123 121 121 122 119 124 120 114 114 117 120 126 130 129 126 124 119 113 107 97 89 87 88 88 93 88 85 90 101 104 104 104 103 102 101 98
155 149 144 143 139 130 124 134 123 119 124 122 126 120 116 112 111 108 113 118 119 119 114 111 106 99 100 100 96 95 98 96 90 83 89 102 105 106 107 107 106 104 101
149 156 153 149 142 133 133 146 138 131 136 137 142 135 127 125 126 131 126 128 128 126 124 117 117 112 110 109 109 105 102 101 98 86 86 98 104 107 106 108 108 107 105
155 155 164 159 151 143 137 151 145 147 149 148 147 146 139 142 146 147 146 141 139 134 134 129 123 120 119 118 114 108 108 107 101 91 86 92 103 106 106 107 110 108 106
136 168 166 169 161 151 152 160 155 155 153 151 153 156 149 149 152 154 155 152 149 146 145 138 132 123 117 112 108 109 111 112 101 95 89 85 91 100 104 106 108 110 108
163 147 169 165 163 159 158 164 156 158 155 158 161 159 152 152 154 154 158 158 157 145 133 123 116 106 105 100 96 102 106 105 106 98 91 86 86 89 98 101 104 106 107
110 131 162 171 164 170 166 161 159 162 160 160 158 157 155 155 154 151 155 160 155 142 136 131 124 112 105 102 96 93 95 96 98 99 92 90 85 84 92 96 97 99 102
105 145 134 134 165 182 175 164 160 162 159 158 157 159 163 160 156 153 155 156 150 142 140 138 123 125 122 114 106 93 82 85 90 95 94 93 91 89 81 86 88 90 92
84 119 131 108 137 160 174 157 152 145 156 158 163 169 165 161 156 150 153 153 146 142 140 137 131 117 122 123 105 85 67 64 72 81 93 94 91 91 88 81 77 75 81
25 44 72 85 90 112 166 180 173 175 180 181 178 173 167 163 157 152 152 154 152 154 153 143 135 126 122 125 106 89 56 50 59 59 76 93 89 91 94 92 84 76 69
14 3 359 82 311 184 223 214 197 183 183 186 179 175 168 166 163 158 156 161 161 150 147 149 140 137 145 150 134 125 106 38 29 37 52 92 98 96 94 97 95 91 82
4 341 326 281 283 277 287 251 165 145 141 156 178 185 178 171 173 164 164 161 162 159 162 164 159 153 159 167 152 144 151 181 172 7 34 60 78 92 102 101 104 102 98
336 328 319 318 292 250 192 183 184 185 183 193 191 187 183 174 175 171 167 164 162 163 166 173 170 164 157 163 158 120 133 145 148 156 324 21 57 80 86 106 105 99 100
338 336 334 329 304 281 249 196 200 221 202 187 173 170 177 176 175 175 169 167 167 169 172 171 166 167 164 163 159 143 114 97 112 141 172 205 13 354 94 121 120 109 110
352 351 350 344 325 308 293 228 210 209 204 183 178 179 180 180 180 180 176 174 173 173 177 175 171 171 170 159 154 144 149 153 162 147 158 174 188 248 299 185 159 166 153